Tracking 31027 objects as of 19-Jul-2025
HD Live streaming from Space Station
objects crossing your sky now

STARLINK-31668

Track STARLINK-31668 now!
10-day predictions
STARLINK-31668 is classified as:


NORAD ID: 59580
Int'l Code: 2024-076S
Perigee: 489.4 km
Apogee: 490.9 km
Inclination: 43.0 °
Period: 94.3 minutes
Semi major axis: 6861 km
RCS: Unknown
Launch date: April 23, 2024
Source: United States (US)
Launch site: AIR FORCE EASTERN TEST RANGE (AFETR)
Your satellite tracking list
NOAA 19
NOAA 15
NOAA 18
Track 3 satellite(s)




NASA's NSSDC Master Catalog

Two Line Element Set (TLE):
1 59580U 24076S   25199.44674819 -.00000076  00000-0  67421-5 0  9994
2 59580  42.9997 251.4157 0001092 272.5225  87.5502 15.27580918 70685
Source of the keplerian elements: AFSPC